Flag for Angola Weather past 2 weeks in Cabinda, Angola

Now
79 °F

Passing clouds.


Feels Like: 83 °F
Forecast: 80 / 90 °F
Wind: 3 mph from Northeast

Location: Pointe Airport-Noire


UV Index: 7 (High)

Visibility: N/A


Pressure: 29.74 "Hg

Humidity: 94%

Dew point: 77 °F

Location of CabindaLocation

Historic Weather in Cabinda

°F

Cabinda temperature yesterday

Maximum temperature yesterday: 88 °F (at 12:00 PM)
Minimum temperature yesterday: 77 °F (at 3:00 AM)
Average temperature yesterday: 83 °F

Past Weeks' High & Low Weather Summary

 TemperatureHumidityPressure
High90 °F (Apr 11, 12:00 PM)100% (Apr 4, 5:00 AM)29.92 "Hg (Apr 4, 5:00 AM)
Low75 °F (Apr 3, 6:00 AM)55% (Apr 11, 12:00 PM)29.71 "Hg (Apr 10, 5:00 PM)
Average83 °F80%29.83 "Hg
* Reported Apr 3 1:00 AM — Apr 18 1:00 AM, Cabinda, Weather by CustomWeather, © 2014

Note: Actual official high and low records may vary slightly from our data, if they occured in-between our weather recording intervals... More about our weather records

Advertising

Historic Weather Conditions — Data for Previous 24 hours

 ConditionsComfort  
Time TempWeatherWind HumidityBarometerVisibility
1:00 AM
Apr 18
81 °FPassing clouds.1 mph89%29.77 "HgN/A
12:00 AM81 °FPassing clouds.3 mph94%29.80 "HgN/A
11:00 PM
Apr 17
82 °FPassing clouds.6 mph89%29.80 "HgN/A
10:00 PM84 °FThunderstorms. Passing clouds.5 mph79%29.83 "HgN/A
9:00 PM84 °FThunderstorms. Passing clouds.9 mph79%29.80 "HgN/A
8:00 PM84 °FThunderstorms. Passing clouds.8 mph79%29.77 "HgN/A
7:00 PM84 °FThunderstorms. Passing clouds.6 mph74%29.71 "HgN/A
6:00 PM86 °FPassing clouds.9 mph75%29.71 "HgN/A
5:00 PM88 °FScattered clouds.10 mph70%29.71 "HgN/A
4:00 PM88 °FPassing clouds.9 mph70%29.71 "HgN/A
3:00 PM88 °FPassing clouds.10 mph66%29.71 "HgN/A
2:00 PM88 °FScattered clouds.10 mph70%29.77 "HgN/A
1:00 PM88 °FScattered clouds.8 mph70%29.80 "HgN/A
12:00 PM88 °FScattered clouds.9 mph70%29.83 "HgN/A
11:00 AM86 °FPartly sunny.9 mph75%29.86 "HgN/A
10:00 AM86 °FPassing clouds.7 mph75%29.86 "HgN/A
9:00 AM84 °FPassing clouds.5 mph74%29.83 "HgN/A
8:00 AM79 °FPassing clouds.1 mph94%29.83 "Hg5 mi
7:00 AM77 °FPassing clouds.2 mph94%29.80 "Hg5 mi
6:00 AM77 °FPassing clouds.2 mph94%29.77 "Hg5 mi
5:00 AM77 °FPassing clouds.3 mph94%29.77 "Hg5 mi
4:00 AM77 °FPassing clouds.3 mph94%29.77 "Hg5 mi
3:00 AM77 °FPassing clouds.2 mph94%29.77 "Hg5 mi
2:00 AM79 °FPassing clouds.2 mph89%29.77 "Hg5 mi
Weather by CustomWeather, © 2014

See weather overview